Tracking 35331 objects as of 16-Sep-2026
HD Live streaming from Space Station
objects crossing your sky now

KSF2-C


KSF2-C is no longer on orbit


NORAD ID: 52189
Int'l Code: 2022-033AJ
Launch date: April 1, 2022
Source: Luxembourg (LUXE)
Launch site: AIR FORCE EASTERN TEST RANGE (AFETR)
Decay date: 2024-08-16
Your satellite tracking list
Your tracking list is empty




NASA's NSSDC Master Catalog

Two Line Element Set (TLE):
1 52189U 22033AJ  24227.64857431  .03433073  24018-5  15065-2 0  9992
2 52189  97.3173 323.3444 0009837 253.1063 106.9149 16.22368386133133
Source of the keplerian elements: AFSPC